Wind_Speed
14 13 12 12 12 12 12 12 12 11 10 9 9 8 8 6 7 7 6 6 7 7 7 7 7 7 6 6 6 6 5 5 6 5 5 5 5 6 6 7 6 7 7 7 6 6 7 6 6
13 13 12 12 13 12 12 12 12 12 10 10 9 8 7 7 7 7 6 6 6 6 7 7 6 6 6 5 5 5 5 5 4 5 5 5 5 5 5 5 6 6 6 6 6 6 5 5 6
13 13 13 14 15 14 13 13 13 12 10 9 9 8 8 7 7 7 6 6 6 6 6 6 6 5 5 5 5 5 5 4 4 4 4 4 4 4 4 4 5 6 5 5 5 5 5 5 5
13 12 13 14 15 15 14 14 14 13 11 10 9 9 8 6 6 6 6 6 6 6 6 6 6 5 4 4 4 4 4 4 3 3 4 4 3 4 4 4 5 5 5 4 4 4 4 4 4
12 13 14 15 15 15 14 13 12 13 12 10 9 8 8 7 7 6 6 6 6 6 5 6 6 4 4 5 5 4 4 3 3 3 3 3 3 3 3 4 4 5 4 4 3 3 3 3 3
11 12 15 15 15 15 15 14 13 12 12 10 9 9 8 7 7 7 7 7 6 6 5 6 6 5 4 4 5 4 3 3 4 3 3 3 3 3 4 4 4 4 4 3 3 2 2 2 2
11 13 14 15 16 15 14 15 14 13 12 10 10 9 8 8 8 7 7 7 6 6 5 5 5 5 5 4 4 5 3 3 3 3 3 3 3 3 4 3 4 4 3 3 3 2 2 2 3
12 15 15 15 15 15 15 15 14 14 13 11 11 10 9 8 8 7 8 7 6 6 6 6 6 5 5 4 4 5 4 3 3 3 3 3 3 3 3 3 3 3 3 2 2 2 2 3 2
11 13 13 15 15 15 15 15 15 14 13 12 12 11 9 8 8 8 8 8 7 7 7 6 5 5 5 5 5 5 4 3 3 3 3 3 3 3 3 3 3 3 2 2 2 2 2 2 2
11 11 12 13 14 14 15 15 15 15 14 14 13 11 11 10 8 8 8 8 8 7 6 6 5 5 5 5 5 4 4 4 3 3 3 3 3 2 2 2 2 1 1 1 1 1 1 1 2
9 10 12 12 13 14 14 14 15 14 14 14 13 12 11 10 10 9 8 8 8 7 7 6 5 5 5 4 4 3 4 4 3 3 2 2 2 2 2 2 1 1 1 1 1 2 1 1 2
8 9 10 11 13 13 14 15 15 14 14 14 14 13 11 11 11 10 8 8 8 7 6 6 5 5 4 4 4 4 4 4 3 3 2 2 2 1 1 1 1 1 1 1 1 1 1 1 1
7 7 10 11 11 12 12 13 14 14 14 13 13 13 13 12 11 10 9 8 7 7 7 7 6 6 5 5 5 4 4 3 2 2 2 2 1 1 1 1 0 1 1 1 1 1 1 0 0
6 6 8 9 10 11 11 12 12 14 14 13 12 12 13 12 11 11 10 9 8 8 7 7 7 7 7 7 5 5 4 4 3 2 2 2 2 2 2 2 1 2 1 1 1 2 2 1 1
5 6 7 8 8 9 10 11 11 12 13 13 12 12 12 11 10 10 9 9 9 9 8 7 7 7 7 6 6 5 4 4 3 2 2 2 2 2 2 2 2 2 1 1 1 1 1 1 2
5 5 5 7 7 8 8 11 11 11 12 12 12 12 12 11 10 9 9 8 8 9 8 7 6 6 7 7 6 4 4 3 2 2 1 1 1 1 2 2 1 2 1 1 0 1 2 3 3
4 3 4 5 7 8 8 9 10 11 11 11 11 11 10 10 9 8 8 8 8 8 7 6 6 5 6 6 5 3 4 3 3 2 1 1 0 1 1 1 2 1 1 0 1 2 3 4 4
2 1 2 3 4 7 8 9 9 10 10 9 10 11 10 9 8 8 8 7 7 7 7 6 6 5 5 5 5 4 3 3 2 1 1 1 1 0 0 1 2 2 2 2 2 3 4 4 5
1 1 2 3 4 6 8 9 9 9 9 9 10 10 10 9 8 7 7 6 7 7 6 6 6 5 5 5 4 3 2 2 2 1 1 1 0 0 1 2 2 3 3 3 4 4 5 5 5
3 2 2 3 5 7 7 7 6 8 9 9 9 9 8 8 8 7 6 6 6 6 6 5 5 5 5 4 4 4 3 2 2 2 1 1 0 1 2 2 3 3 3 4 5 4 5 5 4
4 3 4 5 5 7 9 8 7 7 8 8 8 9 9 8 7 7 7 7 7 7 6 6 6 5 4 4 3 3 3 2 2 1 0 1 2 2 2 2 3 4 4 4 4 4 5 5 5
6 5 7 7 7 8 9 9 8 8 8 7 7 8 8 8 8 7 7 7 7 6 6 6 6 5 4 3 3 3 3 2 1 0 1 2 3 4 4 4 5 5 5 5 5 5 5 6 6
7 6 8 8 9 9 8 10 9 9 9 8 7 8 8 9 9 8 8 7 7 7 6 6 5 4 4 4 3 3 3 2 2 2 3 3 4 5 5 6 7 7 6 6 6 7 7 7 7
8 9 10 10 10 9 8 10 9 10 10 9 9 9 9 9 9 8 8 8 7 8 8 7 6 5 5 4 4 4 4 4 4 4 5 6 6 6 6 7 8 9 8 7 7 8 9 8 9
10 11 11 12 11 9 9 11 11 10 10 9 9 9 8 8 8 9 10 8 8 9 9 8 7 7 7 6 6 6 6 6 6 7 7 7 7 7 8 8 9 9 9 9 9 10 10 10 11
11 11 12 13 12 10 10 12 12 11 11 9 9 10 10 9 9 10 10 9 9 9 9 9 8 8 8 9 9 8 8 8 8 9 9 9 9 9 10 11 11 11 11 11 12 12 12 12 12
13 12 13 14 14 14 12 12 11 11 11 9 10 11 12 12 12 12 11 11 10 11 11 10 9 10 10 10 11 11 10 10 11 12 11 11 11 11 12 12 12 13 12 13 14 15 15 14 14
14 14 15 16 17 16 15 15 14 11 11 12 13 13 13 13 13 13 13 13 13 13 12 12 12 12 12 13 13 13 13 13 14 14 14 14 14 14 14 14 14 14 15 16 15 16 16 16 16
16 16 17 17 16 17 18 17 17 16 15 14 15 15 16 16 15 14 14 14 14 13 13 14 14 14 14 14 15 15 16 16 16 16 16 16 16 16 17 16 16 17 18 18 18 18 17 18 19
18 19 19 20 19 19 19 18 17 18 17 16 17 17 17 17 17 17 16 15 15 14 15 15 16 18 17 17 18 17 17 18 18 18 17 18 18 19 20 19 19 19 20 20 21 21 21 21 21
Wind_Direction
87 82 72 63 66 65 57 58 56 58 51 49 50 55 54 56 56 59 65 83 103 111 109 111 112 113 116 116 114 111 108 109 114 111 109 106 103 104 109 114 112 108 105 102 102 107 107 108 108
80 72 65 61 61 58 54 53 52 51 54 51 47 51 52 53 54 62 63 79 97 99 106 107 114 120 121 122 123 122 117 112 111 110 112 110 110 111 109 114 111 105 103 104 104 106 109 108 106
78 68 61 63 62 59 54 51 49 46 45 47 45 48 49 54 59 63 64 74 84 91 102 106 109 114 117 123 127 126 121 111 108 104 109 110 109 113 105 108 109 104 104 110 106 104 107 108 106
82 71 63 58 55 55 54 50 46 43 41 43 48 49 50 49 61 64 63 72 77 92 103 104 105 114 124 132 132 133 128 117 112 105 110 111 107 106 103 111 106 103 104 108 104 103 106 106 104
80 70 60 55 51 53 52 48 43 41 41 41 48 50 50 51 62 65 62 67 80 88 97 102 106 116 127 135 137 132 129 127 120 117 117 114 110 108 112 116 106 99 98 99 98 100 103 99 100
79 67 56 50 48 50 50 48 44 40 41 43 49 53 51 51 53 58 63 68 71 76 91 102 105 107 117 132 132 126 112 111 111 110 107 105 104 105 111 104 100 101 96 93 98 99 96 105 99
77 65 52 51 47 48 48 49 43 38 39 43 49 54 54 55 55 58 61 69 73 80 89 96 101 95 106 126 134 139 127 123 112 105 101 104 107 105 106 99 96 98 95 91 95 93 93 107 112
73 62 49 47 47 49 48 42 42 39 38 42 45 51 55 59 61 56 57 64 73 85 85 92 95 96 101 118 134 133 131 120 107 101 105 111 107 103 104 98 93 93 89 85 89 88 92 108 123
74 59 54 51 46 48 48 43 44 44 42 42 45 51 55 60 62 62 62 62 69 78 82 86 93 99 105 112 132 135 139 127 103 92 90 105 99 95 105 102 104 99 89 89 86 90 104 114 127
72 62 58 53 45 46 45 43 45 44 41 42 46 51 54 61 67 68 67 64 63 69 76 75 82 93 99 108 126 138 140 128 105 90 87 93 88 85 98 105 104 95 105 94 75 92 115 123 121
74 67 62 56 47 43 42 43 41 39 36 39 43 48 47 55 63 66 67 66 67 65 64 64 69 81 92 109 124 135 133 121 106 100 98 100 94 81 85 91 96 97 121 111 89 85 104 127 119
83 76 68 61 48 42 41 41 37 36 34 39 45 50 49 52 58 59 62 63 68 70 71 72 71 70 79 94 108 122 121 124 119 111 121 145 117 75 81 81 80 97 118 148 154 165 167 150 116
84 77 70 63 58 46 39 39 36 38 37 40 49 53 51 53 54 53 55 61 67 70 71 69 71 73 77 85 97 126 132 133 130 132 135 150 121 59 65 49 53 144 149 163 164 219 220 204 254
86 77 66 59 51 47 38 39 37 39 37 39 46 49 50 51 51 52 53 58 63 66 70 68 68 72 78 83 92 115 125 127 114 97 107 102 101 82 73 61 111 139 148 185 203 204 218 249 278
81 73 60 55 51 45 36 31 31 33 32 34 39 44 46 49 50 49 51 56 59 61 64 64 66 70 77 80 87 102 111 115 118 96 99 104 132 119 108 86 104 104 110 137 153 181 189 265 296
88 81 61 47 42 39 30 26 23 28 35 31 31 36 41 43 43 46 48 51 56 60 58 58 64 70 72 76 80 91 98 113 107 96 111 119 157 123 85 93 85 84 93 112 80 317 298 296 301
126 82 55 43 33 19 7 13 20 21 28 28 26 30 35 37 35 37 43 46 53 55 51 53 59 60 65 71 70 91 89 94 93 95 119 144 179 132 99 68 42 30 320 275 322 317 308 305 300
155 86 40 56 32 0 350 354 12 11 19 24 24 29 29 28 28 27 32 37 44 46 47 53 51 50 52 57 60 64 69 68 77 110 139 179 240 310 36 9 352 352 317 308 327 319 309 311 303
199 124 23 14 351 336 342 349 353 2 11 17 20 27 30 29 24 20 23 24 32 37 41 42 40 39 38 43 47 48 47 50 57 99 161 156 146 353 359 354 345 345 341 338 339 332 322 315 311
234 243 266 299 311 318 327 328 334 345 357 1 8 17 19 14 18 11 8 8 22 23 26 30 31 28 28 34 34 32 30 35 40 52 158 170 126 311 323 336 322 325 327 328 331 330 324 318 318
241 260 251 253 281 295 302 303 308 323 341 346 356 6 5 1 4 6 2 4 5 12 15 15 17 15 16 14 15 15 13 15 33 58 185 223 267 281 287 301 312 312 316 320 319 320 319 320 322
241 247 249 256 266 277 287 294 301 306 317 332 343 350 358 353 351 354 357 355 355 3 5 6 9 10 8 2 6 9 356 344 346 338 275 252 265 273 279 288 300 310 309 310 313 315 313 316 314
238 243 250 258 264 268 277 284 285 289 301 313 325 331 340 340 338 336 338 342 344 348 348 348 345 344 344 343 344 343 341 331 297 289 290 286 280 279 276 285 290 296 298 300 299 300 302 303 304
237 242 246 252 254 258 270 279 275 288 298 298 303 315 327 326 320 319 322 326 325 324 326 326 320 313 315 316 314 314 315 313 308 298 291 294 287 285 281 283 286 288 289 289 293 294 294 297 299
235 242 243 245 248 253 260 276 277 282 292 294 298 300 307 310 305 314 320 323 320 313 311 314 309 304 305 303 298 295 297 296 298 296 291 290 288 290 288 287 291 290 287 283 287 291 288 292 293
237 242 246 252 252 256 262 276 276 270 277 281 294 301 298 304 307 312 315 313 315 310 303 304 303 303 301 295 291 289 289 291 289 288 285 285 285 285 285 286 287 290 289 286 285 288 287 289 290
239 245 249 256 255 256 261 266 270 273 274 272 283 295 302 304 308 311 311 309 304 302 294 297 293 298 297 295 292 289 287 286 286 283 281 280 283 283 283 285 286 286 285 286 286 284 282 285 288
239 241 244 247 249 252 258 261 264 275 281 283 291 298 300 302 301 303 307 308 303 305 297 298 297 298 297 294 296 295 291 290 289 285 280 278 280 282 282 281 283 284 284 283 285 285 283 284 285
239 239 241 246 249 253 257 260 264 268 273 280 287 293 295 295 296 298 304 310 306 301 298 294 291 294 296 296 294 294 290 288 290 287 282 278 279 279 279 280 281 281 282 282 282 284 282 282 282
243 244 245 250 251 254 259 263 266 270 270 274 279 281 285 286 290 295 296 298 299 297 295 293 293 294 293 293 294 293 292 290 286 284 283 281 279 278 277 277 278 278 278 279 280 281 281 280 281
Height
5911 5911 5911 5912 5911 5910 5910 5910 5909 5909 5908 5907 5907 5907 5907 5907 5907 5908 5905 5903 5904 5904 5904 5904 5905 5905 5906 5906 5906 5907 5907 5907 5907 5907 5907 5907 5907 5908 5908 5907 5907 5907 5907 5908 5907 5907 5907 5907 5907
5913 5912 5914 5914 5912 5911 5911 5911 5911 5910 5910 5908 5908 5908 5908 5907 5907 5906 5905 5904 5905 5905 5905 5905 5906 5906 5907 5907 5907 5908 5908 5909 5909 5909 5909 5909 5909 5909 5909 5908 5908 5908 5908 5909 5909 5908 5908 5908 5908
5915 5915 5916 5914 5912 5912 5912 5912 5911 5911 5911 5910 5910 5909 5909 5908 5907 5907 5906 5906 5906 5906 5906 5906 5907 5907 5908 5908 5908 5909 5909 5910 5910 5910 5910 5910 5910 5910 5910 5909 5909 5909 5909 5909 5909 5909 5909 5909 5909
5917 5917 5917 5916 5914 5914 5914 5913 5912 5912 5912 5911 5911 5910 5910 5909 5908 5908 5907 5906 5906 5907 5907 5907 5908 5908 5908 5909 5909 5910 5910 5910 5911 5911 5910 5911 5910 5910 5910 5910 5910 5910 5910 5910 5910 5910 5910 5909 5909
5918 5918 5917 5916 5916 5915 5915 5914 5913 5913 5913 5912 5912 5911 5911 5910 5908 5908 5907 5907 5907 5907 5907 5908 5908 5909 5909 5909 5910 5910 5911 5911 5911 5911 5911 5911 5911 5911 5911 5911 5911 5911 5910 5910 5910 5910 5910 5910 5910
5920 5919 5919 5918 5918 5917 5916 5915 5915 5915 5914 5913 5913 5912 5911 5910 5909 5908 5908 5908 5908 5908 5908 5908 5909 5909 5910 5910 5911 5911 5912 5912 5912 5912 5912 5912 5912 5912 5911 5911 5911 5911 5911 5911 5911 5911 5911 5910 5910
5922 5921 5920 5920 5920 5919 5918 5917 5917 5916 5915 5915 5914 5913 5912 5911 5910 5909 5908 5908 5908 5908 5909 5909 5910 5910 5910 5911 5911 5912 5912 5912 5912 5912 5912 5912 5912 5912 5912 5912 5912 5912 5912 5911 5911 5911 5911 5911 5911
5923 5923 5922 5921 5921 5920 5919 5918 5918 5917 5916 5915 5914 5914 5913 5913 5911 5910 5909 5909 5909 5909 5909 5910 5910 5911 5911 5911 5911 5912 5913 5913 5913 5913 5913 5913 5913 5913 5913 5913 5913 5912 5912 5912 5912 5911 5911 5911 5911
5924 5925 5924 5923 5923 5922 5921 5920 5920 5919 5917 5916 5915 5915 5914 5913 5912 5911 5911 5911 5911 5911 5911 5911 5911 5911 5911 5911 5912 5912 5913 5913 5913 5913 5913 5913 5913 5913 5913 5913 5913 5913 5913 5912 5912 5912 5911 5911 5911
5925 5925 5925 5925 5925 5924 5923 5922 5921 5920 5919 5918 5916 5916 5915 5914 5914 5913 5913 5912 5912 5912 5912 5912 5912 5912 5912 5912 5912 5913 5913 5913 5914 5914 5914 5914 5914 5914 5914 5913 5913 5913 5913 5913 5912 5912 5912 5911 5912
5926 5926 5926 5926 5926 5925 5925 5924 5922 5922 5921 5920 5918 5917 5916 5915 5915 5915 5914 5914 5914 5913 5913 5913 5913 5912 5912 5912 5913 5913 5913 5914 5914 5914 5914 5914 5914 5914 5914 5914 5914 5913 5913 5913 5912 5912 5912 5912 5912
5928 5928 5927 5927 5927 5927 5926 5925 5925 5924 5923 5921 5920 5919 5917 5917 5916 5916 5915 5915 5915 5915 5914 5914 5914 5914 5913 5913 5913 5913 5914 5914 5914 5914 5914 5914 5915 5915 5914 5914 5914 5913 5913 5913 5912 5912 5912 5912 5912
5929 5929 5929 5928 5929 5928 5928 5927 5927 5925 5924 5923 5922 5921 5920 5918 5918 5917 5916 5916 5916 5915 5915 5915 5915 5914 5914 5914 5914 5914 5914 5914 5915 5915 5915 5915 5915 5915 5914 5914 5913 5913 5913 5913 5912 5912 5912 5912 5912
5931 5930 5930 5930 5930 5929 5929 5929 5929 5927 5926 5924 5923 5922 5921 5920 5919 5918 5918 5917 5916 5916 5915 5915 5915 5915 5915 5915 5914 5914 5914 5915 5915 5915 5915 5915 5915 5915 5915 5914 5914 5913 5913 5913 5912 5912 5912 5912 5912
5932 5932 5931 5931 5930 5930 5930 5930 5929 5928 5927 5926 5925 5923 5922 5921 5921 5920 5919 5918 5917 5917 5916 5916 5916 5915 5915 5915 5914 5914 5914 5915 5915 5915 5915 5915 5915 5915 5915 5915 5914 5914 5913 5913 5912 5912 5912 5912 5912
5933 5933 5932 5932 5931 5931 5932 5930 5929 5928 5927 5927 5926 5925 5923 5923 5922 5921 5920 5919 5918 5918 5917 5917 5917 5916 5916 5915 5914 5914 5915 5915 5915 5915 5915 5915 5915 5915 5915 5915 5915 5914 5913 5913 5913 5912 5912 5911 5911
5933 5933 5932 5932 5931 5931 5931 5930 5930 5928 5928 5927 5927 5926 5924 5924 5923 5922 5921 5920 5919 5919 5918 5917 5917 5917 5916 5916 5915 5915 5915 5915 5915 5915 5915 5915 5915 5914 5915 5915 5915 5914 5913 5913 5912 5912 5911 5910 5910
5932 5931 5931 5931 5931 5931 5931 5930 5930 5929 5928 5928 5927 5926 5926 5925 5924 5923 5922 5921 5920 5919 5918 5918 5917 5917 5916 5916 5916 5915 5915 5914 5914 5914 5915 5915 5915 5915 5915 5915 5915 5914 5913 5912 5912 5911 5910 5909 5908
5930 5930 5931 5932 5931 5930 5929 5929 5929 5928 5928 5928 5927 5926 5926 5925 5925 5923 5922 5921 5920 5920 5919 5918 5918 5917 5916 5916 5916 5915 5915 5915 5914 5913 5914 5914 5915 5915 5915 5915 5914 5913 5913 5912 5911 5910 5909 5908 5907
5929 5930 5930 5931 5930 5929 5928 5928 5928 5927 5927 5927 5927 5927 5926 5925 5924 5923 5922 5921 5921 5920 5919 5918 5918 5917 5917 5916 5916 5915 5915 5914 5914 5913 5913 5914 5914 5914 5914 5914 5913 5913 5912 5911 5910 5909 5908 5907 5906
5927 5929 5929 5929 5928 5928 5928 5928 5927 5927 5926 5926 5926 5926 5926 5925 5924 5923 5922 5921 5921 5920 5919 5918 5917 5917 5916 5916 5916 5915 5915 5914 5914 5913 5913 5913 5913 5913 5913 5913 5912 5911 5910 5910 5909 5908 5907 5906 5905
5925 5927 5927 5927 5927 5927 5928 5926 5926 5925 5925 5925 5925 5925 5925 5925 5924 5923 5922 5921 5920 5919 5919 5918 5917 5917 5916 5916 5915 5914 5914 5914 5913 5913 5913 5912 5912 5912 5911 5911 5911 5910 5909 5908 5907 5906 5905 5904 5904
5924 5925 5926 5926 5926 5926 5926 5925 5925 5923 5923 5923 5924 5924 5924 5924 5923 5922 5922 5921 5920 5919 5918 5917 5917 5916 5916 5915 5914 5914 5913 5913 5912 5912 5911 5911 5910 5909 5909 5909 5908 5908 5907 5906 5905 5904 5903 5902 5902
5922 5923 5923 5924 5924 5924 5924 5923 5923 5921 5921 5921 5922 5922 5922 5922 5922 5921 5920 5920 5919 5918 5917 5917 5916 5915 5915 5914 5913 5913 5912 5911 5911 5910 5909 5909 5908 5907 5906 5906 5906 5905 5904 5903 5902 5901 5901 5900 5899
5919 5920 5920 5921 5921 5922 5922 5920 5920 5919 5919 5919 5919 5919 5920 5920 5920 5919 5918 5918 5917 5916 5916 5915 5914 5914 5913 5912 5912 5911 5910 5909 5909 5908 5907 5907 5905 5905 5904 5904 5903 5902 5901 5900 5899 5899 5898 5897 5896
5916 5917 5918 5918 5918 5919 5918 5917 5917 5916 5916 5916 5917 5917 5918 5917 5917 5917 5916 5916 5915 5914 5913 5913 5912 5911 5911 5910 5909 5908 5908 5907 5906 5905 5904 5904 5903 5902 5902 5901 5900 5899 5898 5897 5897 5896 5894 5893 5892
5913 5913 5914 5915 5915 5915 5915 5914 5913 5913 5914 5914 5914 5914 5914 5914 5913 5913 5912 5912 5912 5912 5911 5910 5909 5909 5908 5907 5906 5905 5904 5904 5903 5902 5901 5900 5900 5899 5898 5897 5896 5895 5894 5894 5893 5892 5891 5890 5888
5909 5910 5911 5911 5911 5911 5911 5911 5911 5911 5911 5911 5911 5911 5911 5910 5910 5909 5909 5908 5908 5907 5907 5906 5906 5906 5905 5903 5902 5902 5901 5900 5899 5898 5897 5896 5895 5895 5894 5893 5892 5891 5890 5889 5888 5887 5886 5885 5884
5905 5905 5905 5906 5907 5907 5907 5909 5907 5907 5907 5907 5907 5907 5907 5906 5906 5905 5905 5905 5904 5904 5903 5903 5902 5902 5901 5899 5898 5897 5896 5895 5894 5893 5892 5891 5890 5890 5889 5888 5887 5886 5885 5884 5882 5881 5881 5880 5879
5900 5900 5901 5902 5903 5903 5902 5906 5903 5903 5903 5903 5904 5903 5903 5902 5901 5901 5901 5901 5900 5900 5899 5898 5898 5897 5896 5895 5893 5892 5891 5890 5889 5888 5887 5886 5885 5884 5883 5882 5881 5880 5879 5878 5877 5876 5875 5874 5873